| time (UTC) | temp C | wind direction | speed KPH | gust KPH | rain 1hr cm | rain 24hr cm | rain mn cm | humidity % | barometer mb |
| 20260905050009 | 24 | 58 | 0.0 | 0.0 | 0.00 | 0.00 | 0.00 | 78 | 1011.9 |
| 20260905044508 | 24 | 58 | 0.0 | 0.0 | 0.00 | 0.00 | 0.00 | 77 | 1011.9 |
| 20260905043008 | 25 | 58 | 0.0 | 0.0 | 0.00 | 0.00 | 0.00 | 76 | 1012.0 |
| 20260905041507 | 25 | 88 | 0.0 | 4.8 | 0.00 | 0.00 | 0.00 | 74 | 1011.8 |
| 20260905040014 | 25 | 109 | 0.0 | 4.8 | 0.00 | 0.00 | 0.00 | 73 | 1011.8 |
| 20260905034517 | 26 | 99 | 1.6 | 4.8 | 0.00 | 0.00 | 0.00 | 72 | 1011.7 |
| 20260905033005 | 26 | 109 | 1.6 | 8.0 | 0.00 | 0.00 | 0.00 | 71 | 1011.6 |
| 20260905031504 | 26 | 97 | 1.6 | 9.7 | 0.00 | 0.00 | 0.00 | 70 | 1011.6 |
| 20260905030004 | 26 | 83 | 3.2 | 8.0 | 0.00 | 0.00 | 0.00 | 69 | 1011.4 |
| 20260905024503 | 26 | 90 | 3.2 | 9.7 | 0.00 | 0.00 | 0.00 | 70 | 1011.2 |
| 20260905023004 | 26 | 189 | 0.0 | 0.0 | 0.00 | 0.00 | 0.00 | 68 | 1010.9 |
| 20260905021502 | 26 | 189 | 0.0 | 0.0 | 0.00 | 0.00 | 0.00 | 67 | 1010.6 |
| 20260905020001 | 27 | 189 | 0.0 | 0.0 | 0.00 | 0.00 | 0.00 | 65 | 1010.6 |
| 20260905014500 | 27 | 189 | 0.0 | 0.0 | 0.00 | 0.00 | 0.00 | 66 | 1010.4 |
| 20260905013101 | 27 | 189 | 0.0 | 0.0 | 0.00 | 0.00 | 0.00 | 65 | 1010.3 |
| 20260905013001 | 27 | 189 | 0.0 | 0.0 | 0.00 | 0.00 | 0.00 | 66 | 1010.3 |
| 20260905011606 | 27 | 189 | 0.0 | 0.0 | 0.00 | 0.00 | 0.00 | 66 | 1010.2 |
| 20260905010059 | 27 | 189 | 0.0 | 0.0 | 0.00 | 0.00 | 0.00 | 65 | 1010.2 |
| 20260905004604 | 28 | 189 | 0.0 | 0.0 | 0.00 | 0.00 | 0.00 | 64 | 1010.3 |
| 20260905003101 | 28 | 189 | 0.0 | 0.0 | 0.00 | 0.00 | 0.00 | 62 | 1010.3 |
| 20260905001607 | 29 | 189 | 0.0 | 3.2 | 0.00 | 0.00 | 0.00 | 61 | 1010.1 |
| 20260904234605 | 29 | 131 | 1.6 | 9.7 | 0.00 | 0.00 | 0.00 | 59 | 1009.9 |
| 20260904233056 | 30 | 90 | 1.6 | 6.4 | 0.00 | 0.00 | 0.00 | 61 | 1009.7 |
| 20260904231555 | 30 | 135 | 4.8 | 11.3 | 0.00 | 0.00 | 0.00 | 61 | 1009.5 |
| 20260904230054 | 30 | 181 | 3.2 | 11.3 | 0.00 | 0.00 | 0.00 | 63 | 1009.5 |
| 20260904224652 | 30 | 132 | 3.2 | 11.3 | 0.00 | 0.00 | 0.00 | 60 | 1009.6 |
| 20260904223053 | 31 | 150 | 3.2 | 11.3 | 0.00 | 0.00 | 0.00 | 59 | 1009.8 |
| 20260904221553 | 31 | 169 | 3.2 | 9.7 | 0.00 | 0.00 | 0.00 | 58 | 1009.9 |
| 20260904220104 | 31 | 193 | 6.4 | 12.9 | 0.00 | 0.00 | 0.00 | 57 | 1010.0 |
| 20260904214544 | 30 | 184 | 4.8 | 9.7 | 0.00 | 0.00 | 0.00 | 64 | 1010.0 |
| 20260904213044 | 30 | 78 | 4.8 | 9.7 | 0.00 | 0.00 | 0.00 | 64 | 1010.2 |
| 20260904211552 | 30 | 152 | 3.2 | 8.0 | 0.00 | 0.00 | 0.00 | 65 | 1010.4 |
| 20260904210046 | 30 | 110 | 3.2 | 11.3 | 0.00 | 0.00 | 0.00 | 64 | 1010.6 |
| 20260904204541 | 30 | 156 | 1.6 | 11.3 | 0.00 | 0.00 | 0.00 | 64 | 1010.7 |
| 20260904203041 | 30 | 136 | 3.2 | 9.7 | 0.00 | 0.00 | 0.00 | 63 | 1010.9 |
| 20260904201540 | 31 | 155 | 3.2 | 12.9 | 0.00 | 0.00 | 0.00 | 61 | 1010.9 |
| 20260904200048 | 31 | 89 | 1.6 | 11.3 | 0.00 | 0.00 | 0.00 | 62 | 1011.0 |
| 20260904194620 | 31 | 149 | 4.8 | 14.5 | 0.00 | 0.00 | 0.00 | 61 | 1011.0 |
| 20260904193040 | 30 | 202 | 3.2 | 14.5 | 0.00 | 0.00 | 0.00 | 63 | 1011.2 |
| 20260904191533 | 30 | 220 | 1.6 | 11.3 | 0.00 | 0.00 | 0.00 | 62 | 1011.3 |
| 20260904190032 | 30 | 118 | 6.4 | 11.3 | 0.00 | 0.00 | 0.00 | 62 | 1011.4 |
| 20260904184530 | 30 | 90 | 4.8 | 11.3 | 0.00 | 0.00 | 0.00 | 64 | 1011.4 |
| 20260904183030 | 30 | 85 | 4.8 | 16.1 | 0.00 | 0.00 | 0.00 | 65 | 1011.7 |
| 20260904181529 | 30 | 187 | 3.2 | 12.9 | 0.00 | 0.00 | 0.00 | 65 | 1011.7 |
| 20260904180029 | 30 | 120 | 3.2 | 11.3 | 0.00 | 0.00 | 0.00 | 65 | 1011.9 |
| 20260904174526 | 30 | 125 | 4.8 | 12.9 | 0.00 | 0.00 | 0.00 | 67 | 1011.9 |
| 20260904173033 | 29 | 184 | 4.8 | 14.5 | 0.00 | 0.00 | 0.00 | 68 | 1012.0 |
| 20260904171526 | 28 | 113 | 4.8 | 11.3 | 0.00 | 0.00 | 0.00 | 69 | 1012.2 |
| 20260904170020 | 28 | 163 | 4.8 | 14.5 | 0.00 | 0.00 | 0.00 | 70 | 1012.4 |
| 20260904164519 | 28 | 114 | 6.4 | 9.7 | 0.00 | 0.00 | 0.00 | 70 | 1012.4 |
| 20260904163018 | 29 | 116 | 4.8 | 12.9 | 0.00 | 0.00 | 0.00 | 70 | 1012.5 |
| 20260904161515 | 28 | 90 | 6.4 | 14.5 | 0.00 | 0.00 | 0.00 | 71 | 1012.5 |
| 20260904160013 | 28 | 211 | 0.0 | 11.3 | 0.00 | 0.00 | 0.00 | 74 | 1012.4 |
| 20260904154511 | 27 | 95 | 4.8 | 11.3 | 0.00 | 0.00 | 0.00 | 74 | 1012.4 |
| 20260904153021 | 27 | 95 | 4.8 | 14.5 | 0.00 | 0.00 | 0.00 | 76 | 1012.3 |
| 20260904151510 | 27 | 163 | 4.8 | 11.3 | 0.00 | 0.00 | 0.00 | 78 | 1012.2 |
| 20260904150007 | 26 | 109 | 4.8 | 12.9 | 0.00 | 0.00 | 0.00 | 79 | 1012.5 |
| 20260904144506 | 26 | 126 | 3.2 | 8.0 | 0.00 | 0.00 | 0.00 | 82 | 1012.4 |
| 20260904143006 | 26 | 115 | 3.2 | 8.0 | 0.00 | 0.00 | 0.00 | 84 | 1012.2 |
| 20260904141503 | 25 | 193 | 3.2 | 9.7 | 0.00 | 0.00 | 0.00 | 85 | 1012.2 |
| 20260904140003 | 25 | 54 | 1.6 | 9.7 | 0.00 | 0.00 | 0.00 | 86 | 1012.1 |
| 20260904134619 | 25 | 101 | 3.2 | 8.0 | 0.00 | 0.00 | 0.00 | 87 | 1012.0 |
| 20260904133113 | 24 | 111 | 0.0 | 8.0 | 0.00 | 0.00 | 0.00 | 88 | 1011.9 |
| 20260904131613 | 24 | 104 | 3.2 | 8.0 | 0.00 | 0.00 | 0.00 | 88 | 1011.6 |
| 20260904130054 | 24 | 123 | 3.2 | 6.4 | 0.00 | 0.00 | 0.00 | 88 | 1011.4 |
| 20260904124553 | 24 | 92 | 3.2 | 6.4 | 0.00 | 0.00 | 0.00 | 88 | 1011.3 |
| 20260904123052 | 23 | 130 | 1.6 | 8.0 | 0.00 | 0.00 | 0.00 | 88 | 1011.0 |
| 20260904121551 | 23 | 98 | 3.2 | 8.0 | 0.00 | 0.00 | 0.00 | 87 | 1010.8 |
| 20260904120048 | 24 | 99 | 4.8 | 8.0 | 0.00 | 0.00 | 0.00 | 86 | 1010.7 |
| 20260904114547 | 24 | 118 | 0.0 | 4.8 | 0.00 | 0.00 | 0.00 | 86 | 1010.6 |
| 20260904113046 | 24 | 151 | 0.0 | 3.2 | 0.00 | 0.00 | 0.00 | 86 | 1010.5 |
| 20260904111545 | 24 | 96 | 1.6 | 4.8 | 0.00 | 0.00 | 0.00 | 85 | 1010.5 |
| 20260904110044 | 25 | 182 | 0.0 | 4.8 | 0.00 | 0.00 | 0.00 | 84 | 1010.4 |
| 20260904104543 | 25 | 198 | 0.0 | 6.4 | 0.00 | 0.00 | 0.00 | 84 | 1010.5 |
| 20260904103050 | 25 | 175 | 0.0 | 6.4 | 0.00 | 0.00 | 0.00 | 84 | 1010.4 |
| 20260904101542 | 25 | 203 | 1.6 | 8.0 | 0.00 | 0.00 | 0.00 | 84 | 1010.5 |
| 20260904100042 | 25 | 149 | 1.6 | 9.7 | 0.00 | 0.00 | 0.00 | 84 | 1010.4 |
| 20260904094544 | 25 | 189 | 0.0 | 6.4 | 0.00 | 0.00 | 0.00 | 85 | 1010.4 |
| 20260904093043 | 24 | 159 | 0.0 | 0.0 | 0.00 | 0.00 | 0.00 | 85 | 1010.3 |
| 20260904091542 | 24 | 172 | 0.0 | 6.4 | 0.00 | 0.00 | 0.00 | 85 | 1010.3 |
| 20260904090048 | 24 | 121 | 0.0 | 0.0 | 0.00 | 0.00 | 0.00 | 85 | 1010.4 |
| 20260904084539 | 24 | 121 | 0.0 | 3.2 | 0.00 | 0.00 | 0.00 | 85 | 1010.3 |
| 20260904083038 | 24 | 170 | 0.0 | 6.4 | 0.00 | 0.00 | 0.00 | 84 | 1010.3 |
| 20260904081539 | 25 | 131 | 0.0 | 1.6 | 0.00 | 0.00 | 0.00 | 83 | 1010.4 |
| 20260904080044 | 25 | 175 | 0.0 | 3.2 | 0.00 | 0.00 | 0.00 | 82 | 1010.6 |
| 20260904074532 | 25 | 160 | 1.6 | 8.0 | 0.00 | 0.00 | 0.00 | 82 | 1010.8 |
| 20260904073035 | 25 | 175 | 1.6 | 9.7 | 0.00 | 0.00 | 0.00 | 81 | 1010.9 |
| 20260904071529 | 25 | 120 | 1.6 | 6.4 | 0.00 | 0.00 | 0.00 | 81 | 1010.9 |
| 20260904070027 | 25 | 147 | 1.6 | 8.0 | 0.00 | 0.00 | 0.00 | 80 | 1010.9 |
| 20260904064526 | 26 | 151 | 1.6 | 9.7 | 0.00 | 0.00 | 0.00 | 79 | 1011.0 |
| 20260904063022 | 26 | 248 | 1.6 | 4.8 | 0.00 | 0.00 | 0.00 | 78 | 1011.1 |
| 20260904061524 | 26 | 332 | 1.6 | 12.9 | 0.00 | 0.00 | 0.00 | 76 | 1011.1 |
| 20260904060017 | 26 | 196 | 1.6 | 6.4 | 0.00 | 0.00 | 0.00 | 74 | 1011.1 |
| 20260904054514 | 26 | 133 | 3.2 | 11.3 | 0.00 | 0.00 | 0.00 | 73 | 1011.0 |
| 20260904053012 | 27 | 170 | 4.8 | 14.5 | 0.00 | 0.00 | 0.00 | 71 | 1010.8 |
| 20260904051524 | 27 | 146 | 3.2 | 11.3 | 0.00 | 0.00 | 0.00 | 68 | 1010.7 |